Regional Weather Roundup
Issued by NWS Jackson, KY

Home | Current Version | Previous Version | Graphics & Text | Print | Product List | Glossary On
Versions: 1 2 3 4 5 6 7 8 9 10 11 12 13 14 15 16 17 18 19 20 21 22 23 24 25 26 27 28 29 30 31 32 33 34 35 36 37 38 39 40 41 42 43 44 45 46 47 48 49 50
000
ASUS43 KJKL 271719
RWRJKL

EAST KENTUCKY HOURLY WEATHER ROUNDUP
NATIONAL WEATHER SERVICE JACKSON KY
1200 PM EST THU NOV 27 2014

NOTE: "FAIR" INDICATES FEW OR NO CLOUDS BELOW 12,000 FEET WITH
NO SIGNIFICANT WEATHER AND/OR OBSTRUCTIONS TO VISIBILITY.

* THESE REPORTS ARE NOT UNDER NWS QUALITY CONTROL AND MAY NOT
  REPORT WEATHER SUCH AS PRECIPITATION AND FOG.

KYZ079-080-083-085-087-088-110-112-115-119-120-271800
...EASTERN KENTUCKY...

CITY           SKY/WX    TMP DP  RH WIND       PRES   REMARKS
JACKSON        CLOUDY    32  24  72 NW8       30.24R WCI  25
LONDON         CLOUDY    33  27  78 NW9G18    30.28S WCI  25
SOMERSET*      CLOUDY    32  28  86 N10       30.33R WCI  24
MONTICELLO*    CLOUDY    34  30  85 W12       30.34S WCI  25
HARLAN APT*    CLOUDY    32  28  86 W9        30.23S WCI  24
BLACK MTN*       N/A     23  23 100 N3          N/A
PIKEVILLE APT* CLOUDY    32  27  80 W9        30.20R WCI  24
BIG SANDY*     CLOUDY    33  27  76 NW3       30.22R
MOREHEAD APT*  CLOUDY    32  23  69 NW9       30.28R WCI  24
ASHLAND*       CLOUDY    36  19  51 W12       30.21F WCI  27
$$

KYZ035-036-041-042-044-050-067-078-099-271800
...CENTRAL KENTUCKY...

CITY           SKY/WX    TMP DP  RH WIND       PRES   REMARKS
MT STERLING*   CLOUDY    32  23  69 NW7       30.29S WCI  26
FLEMING/MASON* CLOUDY    32  23  69 W14       30.27S WCI  22
DANVILLE*      CLOUDY    30  27  86 NW8       30.33R WCI  23
RICHMOND*      CLOUDY    30  25  80 W12       30.30R WCI  21
LEXINGTON      CLOUDY    30  22  72 NW9       30.30S WCI  22
FRANKFORT      PTSUNNY   33  21  61 VRB7      30.30F WCI  27
$$

KYZ091>093-OHZ055-061-077-WVZ005-015-034-035-042-271800
...SOUTHERN OHIO/WEST VIRGINIA...

CITY           SKY/WX    TMP DP  RH WIND       PRES   REMARKS
COVINGTON      CLOUDY    33  20  58 W10       30.28S WCI  25
COLUMBUS       LGT SNOW  31  26  82 NW10      30.19F WCI  22
DAYTON         CLOUDY    33  21  61 NW14      30.24F WCI  23
WILMINGTON     CLOUDY    32  21  64 NW13      30.23R WCI  22
HUNTINGTON     CLOUDY    34  23  64 NW9       30.21S WCI  27
CHARLESTON     CLOUDY    34  26  72 NW8       30.18S WCI  27
PINEVILLE*     CLOUDY    36  30  78 MISG      30.18F
BECKLEY        CLOUDY    31  22  69 NW14      30.08S WCI  21
BLUEFIELD      CLOUDY    31  25  78 NW13G20   30.08R WCI  21
$$

VAZ002-007-008-TNZ017-027-036-066-071-271800
...SOUTHWEST VIRGINIA/EAST TENNESSEE...

CITY           SKY/WX    TMP DP  RH WIND       PRES   REMARKS
WISE*          CLOUDY    32  30  93 NW3       30.15S
JONESVILLE*    CLOUDY    34  28  80 W7        30.25S WCI  28
ABINGDON*      CLOUDY    35  30  83 N6        30.15R WCI  30
BRISTOL        CLOUDY    37  29  72 NW12      30.19R WCI  29
KNOXVILLE      CLOUDY    39  33  79 W7        30.28S WCI  34
OAK RIDGE      CLOUDY    40  30  67 NW6       30.30S
CROSSVILLE     CLOUDY    34  28  79 NW10      30.28S WCI  26
NASHVILLE      CLOUDY    38  26  62 NW12G21   30.41R WCI  30
$$

...KEY TO REMARKS...
VSB - VISIBILITY IN MILES
WCI - WIND CHILL INDEX
HX  - HEAT INDEX

$$


USA.gov is the U.S. government's official web portal to all federal, state and local government web resources and services.